Location: Unspecified
(0.0000°N, 0.0000°E)
Time: 03:52:42
(UTC+00:00)

S-56A Canister/Altair - Pass Details

Date: 18 December 2018
Orbit: 633 x 2500 km, 38.9° (Epoch: 18 March)

Event Time Altitude Azimuth Distance (km) Brightness Sun altitude
Rises 12:07:15 0° 289° (WNW) 6,115 12.1 66.5°
Reaches altitude 10° 12:12:09 10° 280° (W) 4,977 11.8 66.3°
Maximum altitude 12:23:35 31° 224° (SW) 3,046 11.5 65.7°
Drops below altitude 10° 12:32:25 10° 166° (SSE) 3,777 11.5 65.0°
Sets 12:35:36 0° 155° (SSE) 4,490 11.7 64.8°
